TimeCDT,TemperatureF,Dew PointF,Humidity,Sea Level PressureIn,VisibilityMPH,Wind Direction,Wind SpeedMPH,Gust SpeedMPH,PrecipitationIn,Events,Conditions,WindDirDegrees,DateUTC
4:15 AM,19.4,12.2,74,30.16,10.0,Calm,Calm,-,N/A,,Clear,0,2013-04-05 09:15:00
4:35 AM,19.4,14.0,80,30.17,10.0,North,-9999.0,-,N/A,,Clear,0,2013-04-05 09:35:00
4:55 AM,21.2,12.2,68,30.17,10.0,North,-9999.0,-,N/A,,Clear,0,2013-04-05 09:55:00
5:15 AM,19.4,12.2,74,30.17,10.0,Calm,Calm,-,N/A,,Clear,0,2013-04-05 10:15:00
5:35 AM,17.6,10.4,73,30.18,10.0,Calm,Calm,-,N/A,,Partly Cloudy,0,2013-04-05 10:35:00
9:55 AM,28.4,12.2,51,30.22,10.0,Calm,Calm,-,N/A,,Partly Cloudy,0,2013-04-05 14:55:00
10:15 AM,28.4,12.2,51,30.22,10.0,South,3.5,-,N/A,,Partly Cloudy,170,2013-04-05 15:15:00
10:55 AM,28.4,12.2,51,30.21,10.0,Calm,Calm,-,N/A,,Clear,0,2013-04-05 15:55:00
11:15 AM,30.2,12.2,47,30.21,10.0,South,3.5,-,N/A,,Clear,190,2013-04-05 16:15:00
11:35 AM,30.2,12.2,47,30.21,10.0,South,5.8,-,N/A,,Clear,170,2013-04-05 16:35:00
12:35 PM,33.8,10.4,38,30.19,10.0,SW,3.5,-,N/A,,Clear,230,2013-04-05 17:35:00
12:55 PM,33.8,10.4,38,30.18,10.0,South,5.8,-,N/A,,Clear,170,2013-04-05 17:55:00
1:15 PM,33.8,12.2,41,30.17,10.0,WSW,4.6,-,N/A,,Clear,250,2013-04-05 18:15:00
1:35 PM,33.8,10.4,38,30.17,10.0,SSW,3.5,-,N/A,,Clear,200,2013-04-05 18:35:00
1:55 PM,35.6,12.2,38,30.16,10.0,Calm,Calm,-,N/A,,Clear,0,2013-04-05 18:55:00
2:15 PM,35.6,15.8,44,30.15,10.0,NNE,5.8,-,N/A,,Clear,20,2013-04-05 19:15:00
3:35 PM,35.6,15.8,44,30.13,10.0,ENE,3.5,-,N/A,,Clear,60,2013-04-05 20:35:00
3:55 PM,35.6,15.8,44,30.12,10.0,Calm,Calm,-,N/A,,Clear,0,2013-04-05 20:55:00
4:15 PM,35.6,14.0,41,30.12,10.0,Calm,Calm,-,N/A,,Clear,0,2013-04-05 21:15:00
4:35 PM,35.6,15.8,44,30.11,10.0,North,5.8,-,N/A,,Clear,360,2013-04-05 21:35:00